Aeroporto :







RITROVATECI SU...

 
LOGIN :

Iscrizione | Disclaimer

   EN    FR    IT 

 









Sommario :    VFR   VFR Marginale   IFR   IFR Intensivo   IFR Molto Intensivo
Visibilità : 
Base nubi : 
>= 8 km
>= 3000ft
5 / 8 km
1000 / 3000 ft
1500m / 5 km
500 / 1000 ft
800 / 1500m
200 / 500 ft
< 800m
< 200 ft
Simboli :   Temporali  Nebbia  Neve Forte  Precipitazioni Forti  Vento > 20 kt






- Altitudine del aeroporto : 169 ft
- Codice IATA : BGI


TBPB - Grantley Adams Int.

ULTIMO METAR :
  • 180900Z 19005KT 9999 FEW020 26/22 Q1009 NOSIG

METARs OBSOLETI :
  • 180800Z VRB02KT 9999 FEW020 25/22 Q1009 NOSIG
  • 180700Z 32006KT 9999 FEW018 SCT034 25/22 Q1009 NOSIG

TAF TAF TBPB
Valido dal 18 a 06 ore il 19 a 06 ore UTC


180800Z 1806/1906 34005KT 9999 FEW020
PROB30
TEMPO 1806/1812 SHRA BKN015
FIR TTZP / America del Nord



MetMap, La meteo Aeronautica in un colpo d'occhio ! - Copyright ORBIFLY Dicembre 2007 - Disclaimer

ORBIFLY MET'MAP TEAM :

Programmazione e sviluppo : Alexandra Zaïnal
Concezione : Baudouin d'Aumeries
Aiuto per la programmazione : Marc-Olivier Méhu
Supporto tecnico e logistico : Manuel Goepfert
Aiuto per la traduzione : Arnaldo La Scala

Contatto : metmap@orbifly.com




FONTI E CREDITI :

   NOAA